Regional Weather Roundup
Issued by NWS Sterling, VA

Home | Current Version | Previous Version | Graphics & Text | Print | Product List | Glossary On
Versions: 1 2 3 4 5 6 7 8 9 10 11 12 13 14 15 16 17 18 19 20 21 22 23 24 25 26 27
000
ASUS41 KLWX 250111
RWRLWX

REGIONAL WEATHER ROUNDUP
NATIONAL WEATHER SERVICE BALTIMORE MD/WASHINGTON DC
900 PM EDT MON APR 24 2017

Note: "FAIR" indicates few or no clouds below 12,000 feet
with no significant weather and/or obstructions to visibility.
 TC=TEMPERATURE CELSIUS

 * =Non NWS site. Station does not report precipitation (e.g. rain,
    snow, etc.), thunder, or fog.

DCZ001-MDZ009-015-VAZ040>042-051-053>054-250200-
WASHINGTON METRO

CITY           SKY/WX    TMP DP  RH WIND       PRES   REMARKS
WASHINGTON NAT LGT RAIN  54  50  86 NE13      30.02S FOG
DULLES         CLOUDY    51  49  92 N12       30.01F
ANDREWS AFB    LGT RAIN  52  48  87 NE14      30.00R
FT BELVOIR     CLOUDY    53  49  86 NE3       30.00S
QUANTICO       CLOUDY    55  51  86 NE12G21   30.01S
COLLEGE PARK*  CLOUDY    52  47  82 NE6       30.02S
LEESBURG*      LGT RAIN  52  52 100 NE7       30.04S
MANASSAS*      LGT RAIN  52  50  93 N9        30.01F

$$

MDZ006>007-011-014-250200-
BALTIMORE METRO

CITY           SKY/WX    TMP DP  RH WIND       PRES   REMARKS
BWI AIRPORT    LGT RAIN  53  49  86 NE12      30.02F
MD SCIENCE CTR   N/A     56  45  66 MISG      30.05R
MARTIN STATE   RAIN      55  52  88 NE7       30.06R
ANNAPOLIS      LGT RAIN  55  49  80 NE9       30.03R
FORT MEADE*    CLOUDY    52  46  82 NE8G16    30.05S

$$

MDZ012-015-019>023-250200-
MARYLAND EASTERN SHORE

CITY           SKY/WX    TMP DP  RH WIND       PRES   REMARKS
OCEAN CITY     CLOUDY    53  51  93 NE16G24   29.98S
SALISBURY      CLOUDY    54  53  97 NE16G24   29.98S
BAY BRIDGE AP* CLOUDY    52  50  93 NE9       30.02S
CAMBRIDGE*     CLOUDY    54  52  94 NE13G20   29.99S
EASTON*        CLOUDY    54  50  87 E14G21    30.05R

$$

MDZ017>025-250200-
SOUTHERN MARYLAND

CITY           SKY/WX    TMP DP  RH WIND       PRES   REMARKS
PATUXENT RIVER CLOUDY    55  55 100 NE15      29.97F
ST INIGOES     CLOUDY    56  53  90 NE16G28   29.95S
LEONARDTOWN*   CLOUDY    54  52  94 NE6       29.99R

$$

MDZ003>005-250200-
NORTH CENTRAL MARYLAND

CITY           SKY/WX    TMP DP  RH WIND       PRES   REMARKS
FREDERICK*     NOT AVBL
HAGERSTOWN APT LGT RAIN  52  47  83 N5        30.06R
WESTMINSTER*   LGT RAIN  54  48  82 NE3       30.04S

$$

MDZ501>502-250200-
WESTERN MARYLAND

CITY           SKY/WX    TMP DP  RH WIND       PRES   REMARKS
OAKLAND*         N/A     41  41 100 E17G26    29.99S FOG
CUMBERLAND*    CLOUDY    52  48  87 N3        30.09F

$$

VAZ025>031-250200-
SHENANDOAH VALLEY

CITY           SKY/WX    TMP DP  RH WIND       PRES   REMARKS
WINCHESTER*    CLOUDY    46  46 100 N5        30.04S FOG
FRONT ROYAL*   CLOUDY    48  48 100 N3        30.03S
LURAY*         LGT RAIN  48  46  93 N8        30.02S
NEW MARKET*    CLOUDY    48  46  93 N10       30.01S
STAUNTON*      LGT RAIN  48  46  95 NE9       30.00S
WAYNESBORO*    CLOUDY    47  47 100 N9        29.98R

$$

WVZ021-048>050-054>055-250200-
EASTERN WEST VIRGINIA PANHANDLE

CITY           SKY/WX    TMP DP  RH WIND       PRES   REMARKS
MARTINSBURG    LGT RAIN  50  48  93 N7        30.04F
PETERSBURG*    RAIN      51  49  92 CALM      30.05R

$$

VAZ036>039-050-250200-
CENTRAL FOOTHILLS

CITY           SKY/WX    TMP DP  RH WIND       PRES   REMARKS
CHARLOTTESVILL LGT RAIN  51  49  92 NE18G25   29.97S FOG
CULPEPER*      RAIN      52  50  95 N8        30.01F
ORANGE*        RAIN      50  48  93 NE12G21   29.98S
GORDONSVILLE*  CLOUDY    50  49  97 NE13G20   29.97S
WARRENTON*     DRIZZLE   52  48  87 N7        30.00S

$$

VAZ055>057-250200-
NORTH AND CENTRAL PIEDMONT

CITY           SKY/WX    TMP DP  RH WIND       PRES   REMARKS
FREDERICKSBRG* DRIZZLE   53  53 100 N7        29.97F
STAFFORD*      DRIZZLE   51  51 100 N8        30.02S

$$

NCZ024-NYZ072-PAZ021-071-VAZ022-071-250200-
OTHER REGIONAL OBSERVATIONS

CITY           SKY/WX    TMP DP  RH WIND       PRES   REMARKS
NEW YORK CITY  CLOUDY    55  42  61 VRB3      30.15S
PHILADELPHIA   CLOUDY    56  37  49 E15G21    30.08S
PITTSBURGH     CLOUDY    54  46  74 E12       29.98S
ROANOKE        RAIN      52  51  97 NE6       29.90R FOG
RICHMOND       LGT RAIN  54  54 100 NE14G23   29.90S FOG
RALEIGH        RAIN      60  58  92 NE17      29.70F FOG

$$

ANZ530>537-250200-
MARINE OBSERVATIONS

STATION/POSITION TIME  TEMP    WIND        PRES
                       AIR SEA DIR/SP/G
                 (UTC) (F)     (DEG/KT/KT) (MB)
THOMAS PT LIGHT  0100   53 57   50/ 16/ 17   N/A
BALT KEY BRIDGE  0036   56      50/ 11/ 12 1017.0R
COVE POINT       0036   54      40/ 10/ 16 1016.0R
LEWISETTA        0036   57 61   70/ 12/ 19 1014.1S
SOLOMONS ISLAND  0036   55 60   20/  6/ 10   N/A
PINEY POINT      0036           80/ 17/ 22   N/A

$$





USA.gov is the U.S. government's official web portal to all federal, state and local government web resources and services.